RH
24 24 23 24 26 29 32 35 41 55 63 64 66 68 65 69 67 65 76 62 42 38 39 40 38 30 23 16 12 9 6 5 4 4 4 3 3 2
28 27 28 29 30 32 34 36 44 61 69 68 69 72 72 75 75 84 69 44 42 42 43 38 30 22 17 12 8 6 4 4 4 4 3 3 3 2
32 32 33 33 34 35 36 39 48 63 69 72 74 79 72 80 83 72 48 47 46 44 37 29 20 14 10 6 5 4 4 4 4 3 3 3 3 3
37 38 38 38 38 38 40 42 50 65 70 77 78 78 76 86 82 55 54 51 58 43 24 18 12 8 6 4 4 5 4 4 4 4 3 3 3 4
43 44 44 44 44 43 43 46 53 63 72 84 82 80 88 95 74 55 75 75 44 37 15 11 8 6 5 5 5 4 4 4 4 4 4 4 4 5
52 52 52 52 50 49 48 50 55 62 72 77 80 94 98 88 76 92 92 86 66 15 10 7 6 5 5 5 5 5 4 4 4 4 5 6 7 8
43 46 56 59 58 58 56 55 59 66 76 94 98 97 93 93 95 93 77 40 11 8 6 6 6 5 6 6 5 5 5 5 5 6 8 9 9 9
40 42 44 50 58 62 60 61 65 80 96 95 98 99 98 95 89 90 45 10 7 7 7 6 6 6 6 6 5 6 6 7 8 10 11 12 14 14
53 52 59 67 71 76 83 94 86 97 96 97 97 98 98 90 47 11 9 8 6 6 6 6 6 6 6 6 6 7 8 10 12 12 15 17 18 19
93 82 94 91 96 96 96 97 97 97 96 97 97 97 88 73 30 8 7 7 6 6 6 7 6 7 7 7 8 9 11 13 15 17 20 23 25 24
98 100 99 95 97 98 100 97 97 97 96 97 97 59 17 10 8 7 8 7 6 6 6 6 8 7 7 8 11 14 16 19 23 25 26 28 28 27
98 98 98 98 98 99 97 96 98 95 96 83 13 27 45 11 8 7 7 6 6 7 8 8 8 7 5 6 13 18 20 24 27 28 33 34 36 36
98 98 98 98 97 96 98 96 97 95 71 66 91 33 8 8 7 7 7 7 6 6 8 8 7 8 10 9 13 21 25 28 28 31 38 40 47 52
98 98 97 97 96 96 98 97 94 94 94 52 12 8 8 8 7 7 6 7 7 9 11 11 11 13 15 16 20 25 27 31 32 33 39 41 50 55
97 97 97 96 96 96 96 97 95 74 17 8 9 9 8 7 7 6 6 7 9 11 13 14 16 22 26 28 29 30 32 29 34 39 39 41 45 54
97 96 96 96 96 97 95 82 19 9 9 9 9 8 7 6 7 7 8 9 14 17 20 22 26 29 31 34 34 37 37 37 35 40 40 40 49 59
96 96 96 97 96 88 53 13 10 10 10 9 8 6 6 8 7 8 10 14 15 16 22 28 34 37 37 39 39 42 41 39 42 39 42 42 47 62
94 96 96 94 67 32 14 11 11 11 10 8 7 7 7 7 8 10 14 16 17 20 27 36 38 37 40 46 58 49 40 36 43 50 53 53 45 57
93 82 55 33 17 12 11 12 12 10 8 7 7 6 6 7 10 16 19 18 20 28 39 43 45 45 42 39 37 56 43 50 53 50 56 62 59 48
89 61 28 12 13 14 14 12 10 8 7 7 6 7 9 11 16 20 20 21 29 39 47 53 54 52 47 42 29 36 69 67 67 59 57 63 59 51
31 14 14 14 15 16 15 11 8 8 8 7 8 9 12 15 22 22 23 31 40 47 50 54 57 57 54 45 43 47 56 74 77 72 70 68 57 45
14 15 16 17 17 15 11 9 8 8 8 8 10 13 17 22 24 24 33 43 51 51 53 58 64 64 63 61 55 57 56 53 64 71 84 88 78 69
15 16 16 16 14 11 9 9 10 9 8 10 13 18 24 27 26 30 41 48 51 57 62 64 69 73 70 68 66 65 66 60 56 49 60 86 92 97
Wind_Speed
31 31 30 30 28 28 29 29 29 28 25 25 25 25 26 29 32 33 36 36 34 36 36 36 37 38 37 37 37 38 39 39 38 39 39 38 38 38
33 33 32 31 30 31 32 31 30 28 28 27 26 28 30 32 34 38 35 35 35 37 37 36 37 38 38 38 37 38 39 39 41 40 40 39 39 40
35 34 33 33 33 33 32 31 31 30 29 29 29 30 32 35 38 36 35 35 37 36 37 37 37 38 38 38 38 39 41 41 41 41 41 39 40 41
36 35 35 34 33 33 32 32 32 31 31 32 32 34 36 38 36 37 34 33 35 38 37 37 37 37 38 38 40 42 41 41 42 43 42 42 42 41
36 36 35 34 34 33 32 32 33 32 32 34 37 37 38 39 38 35 32 36 36 37 38 37 36 37 38 39 41 41 42 42 43 44 44 44 41 40
34 33 33 33 32 33 33 33 34 35 37 38 38 43 45 39 39 39 40 36 37 38 38 37 37 38 38 40 40 41 43 45 45 45 45 44 42 40
33 34 32 32 33 35 37 37 38 40 39 42 48 49 45 42 42 34 31 34 35 37 36 36 37 37 38 39 40 41 43 44 44 44 43 43 43 42
37 37 38 38 38 38 39 40 42 44 46 47 48 43 36 33 30 30 33 34 33 36 36 32 37 36 38 39 41 42 42 42 42 42 43 42 41 39
40 40 38 37 38 40 43 47 48 46 43 45 37 33 30 27 28 32 33 34 33 34 37 34 36 37 38 39 41 40 40 41 42 43 43 41 40 39
41 44 46 44 48 51 52 49 44 38 42 34 30 29 27 26 30 31 32 33 34 35 39 40 38 40 39 38 40 40 40 42 43 43 41 41 40 39
43 46 47 51 53 48 41 41 39 39 32 29 24 23 26 29 30 30 31 33 34 33 38 42 41 43 42 36 35 36 38 40 41 41 41 41 41 41
46 51 50 49 43 37 36 38 36 32 27 19 22 24 28 30 30 30 32 35 36 38 38 42 40 45 48 41 32 32 36 36 38 39 40 40 40 41
40 40 41 39 35 35 37 32 31 24 20 23 23 26 28 29 30 31 33 36 38 39 40 44 45 43 43 46 42 37 37 37 38 37 38 38 39 38
37 35 34 32 33 36 32 33 27 21 18 20 25 26 28 29 31 33 35 37 37 37 38 42 44 44 45 44 44 38 38 39 41 40 40 40 39 37
30 30 31 35 35 33 29 22 17 15 20 23 25 25 27 31 32 34 36 37 36 37 39 41 42 44 43 43 43 40 42 41 39 40 41 43 40 37
33 34 34 32 32 25 19 13 18 20 21 22 23 27 30 31 32 34 34 36 34 33 35 39 40 42 42 40 40 40 41 43 42 42 43 43 39 35
34 33 31 26 20 15 15 18 19 20 20 23 26 28 29 30 32 34 35 34 34 34 32 33 37 38 37 38 38 37 39 41 40 40 39 40 35 33
33 22 15 15 15 17 18 19 19 20 22 24 26 28 30 32 32 33 35 35 34 34 33 33 34 35 34 31 33 34 35 38 38 35 35 38 36 31
18 12 16 17 18 18 19 19 20 21 23 25 27 30 31 31 31 32 33 34 34 33 31 33 33 35 36 36 34 28 33 34 35 35 35 35 36 33
16 17 18 19 18 18 19 20 21 22 24 27 29 30 31 31 31 32 33 33 31 30 29 29 31 33 34 35 35 30 27 32 37 38 35 34 33 33
16 18 17 17 18 19 20 22 23 24 26 28 29 30 31 31 31 32 32 31 30 30 29 29 30 31 31 32 32 31 28 29 33 36 34 37 38 36
17 17 18 19 20 21 22 23 24 26 27 28 29 31 31 31 31 31 29 28 29 30 30 28 27 28 27 29 30 31 32 29 27 26 26 32 36 40
19 19 20 20 22 23 23 24 25 27 29 30 30 31 31 31 31 29 28 28 29 28 28 26 25 24 24 26 28 30 29 29 28 24 21 24 26 28
Wind_Direction
227 230 233 236 239 243 247 251 254 259 265 268 271 276 278 290 291 289 294 293 293 294 298 299 299 298 300 301 301 300 300 299 301 300 298 298 299 301
227 229 233 237 239 242 245 250 255 260 264 269 273 275 280 288 291 294 291 288 293 295 297 298 298 299 300 300 300 300 300 300 299 299 301 302 304 303
228 231 233 235 238 243 248 252 256 261 265 269 271 278 281 286 292 289 287 291 294 297 297 299 300 299 299 301 302 300 300 300 299 302 304 304 303 303
230 233 237 240 244 246 249 253 257 262 265 272 274 277 281 286 285 283 287 293 294 296 298 297 298 299 300 300 299 299 299 301 302 304 305 304 303 301
233 235 238 242 246 249 252 255 258 262 266 269 273 272 277 281 280 279 284 290 295 298 296 297 298 298 298 299 300 302 302 302 304 306 304 304 304 304
236 238 242 245 248 252 255 258 261 263 262 262 270 274 277 273 273 277 285 288 294 293 294 297 297 298 300 301 302 301 303 306 306 305 305 305 304 303
246 247 247 248 251 253 253 254 256 257 260 271 273 274 271 275 281 281 284 289 290 291 293 298 300 302 302 302 302 303 305 305 305 304 303 303 302 302
245 247 247 247 249 250 253 253 255 258 272 276 279 283 278 273 276 283 288 290 290 291 294 297 298 300 301 303 303 304 306 303 302 303 301 301 303 303
238 241 244 247 250 251 252 254 257 271 278 280 276 273 271 275 286 288 288 289 291 294 295 299 298 300 303 304 304 306 305 304 302 302 302 302 301 300
235 239 245 246 248 251 260 264 271 278 277 268 263 265 273 282 281 282 285 292 296 298 299 301 302 304 305 306 307 307 306 304 303 303 302 300 299 297
240 242 239 242 252 259 267 270 270 273 261 255 264 274 280 281 282 288 292 294 294 296 299 301 306 305 306 309 310 309 305 303 300 301 301 299 298 297
243 241 250 253 257 258 264 267 267 256 251 268 273 275 278 281 286 290 293 295 298 301 302 302 305 306 307 308 311 306 301 297 297 299 299 300 299 298
249 250 253 251 254 256 264 256 251 247 253 258 270 276 279 285 289 292 296 299 301 304 307 307 309 310 309 310 313 312 308 304 303 305 303 303 300 299
246 245 245 250 247 254 242 242 242 247 259 270 271 276 282 288 292 295 299 299 303 307 308 307 309 309 310 311 313 313 309 309 311 310 306 304 304 303
236 237 235 245 245 237 234 236 244 261 262 267 274 283 289 290 294 297 297 302 307 309 309 308 308 308 311 314 313 316 313 312 311 310 309 308 309 309
224 234 238 231 231 228 231 249 251 256 265 273 282 284 286 290 293 297 302 306 308 307 307 306 306 306 308 311 311 314 315 314 313 313 311 312 313 311
236 226 223 216 220 228 239 244 254 263 272 277 280 285 290 293 297 300 303 305 307 305 300 299 300 301 305 309 312 314 313 311 311 312 313 312 314 313
214 199 205 219 229 238 245 252 259 268 275 281 286 289 293 295 300 303 305 306 303 302 303 301 300 303 307 309 310 314 312 312 312 315 316 313 315 317
197 206 220 229 235 241 249 259 268 275 280 283 287 289 293 299 305 306 304 302 302 304 306 305 306 308 311 313 315 322 316 316 316 317 316 313 313 319
208 218 226 233 241 251 260 267 273 278 282 286 290 295 301 306 305 304 303 302 303 304 305 306 307 309 312 314 316 323 325 320 318 318 321 314 315 319
219 225 233 241 250 257 265 272 277 281 286 290 296 301 302 303 305 303 301 302 304 304 305 306 306 309 313 314 318 324 324 318 315 316 320 315 320 325
228 237 244 250 256 263 269 275 280 285 290 294 299 299 300 301 301 301 302 301 299 301 303 306 308 310 313 314 320 323 323 323 324 320 318 316 321 326
238 244 250 256 262 268 275 280 286 290 294 296 296 297 298 299 302 300 296 295 296 299 302 306 309 311 314 315 320 320 321 324 324 322 321 317 318 319